Mobile, AL

7:42 PM CDT on October 22, 2019 (GMT -0500)
Mobile Regional

Weather History for KMOB - September, 2019

Change the Weather History Date:

Wednesday, September 18, 2019

  Actual Average Record
Temperature  
Mean Temperature 86 °F 77 °F  
Max Temperature 100 °F 87 °F 96 °F (1925)
Min Temperature 73 °F 68 °F 54 °F (1981)
Degree Days  
Heating Degree Days 0 0  
Month to date heating degree days 0 0  
Since 1 July heating degree days 0 0  
Cooling Degree Days 22 12  
Month to date cooling degree days 357 253  
Year to date cooling degree days 2637 2180  
Growing Degree Days 36 (Base 50)    
Moisture  
Dew Point 73 °F    
Average Humidity 74    
Maximum Humidity 100    
Minimum Humidity 39    
Precipitation  
Precipitation 0.00 in 0.17 in 6.75 in (1877)
Month to date precipitation 0.00 3.14  
Year to date precipitation 44.86 50.30  
Sea Level Pressure  
Sea Level Pressure 29.97 in    
Wind  
Wind Speed 4 mph ()    
Max Wind Speed 12 mph    
Max Gust Speed 15 mph    
Visibility 9.6 miles    
Events      
T = Trace of Precipitation, MM = Missing Value Source: Averaged Metar Reports

Daily Weather History Graph

Daily Weather History Graph

Search for Another Location

Airport or City:

Astronomy

Sep. 18, 2019 Rise Set
Actual Time 6:38 AM CDT 6:54 PM CDT
Civil Twilight 6:14 AM CDT 7:18 PM CDT
Nautical Twilight 5:46 AM CDT 7:47 PM CDT
Astronomical Twilight 5:18 AM CDT 8:15 PM CDT
Moon 9:45 PM CDT (9/18) 10:26 AM CDT (9/18)
Length of Visible Light 13h 04m
Length of Day
12h 16m
Waning Gibbous, 82% of the Moon is Illuminated
Sep 18
Waning Gibbous
Sep 21
Last Quarter
Sep 28
New
Oct 5
First Quarter
Oct 13
Full

Hourly Weather History & Observations

Time (CDT) Temp. Heat Index Dew Point Humidity Pressure Visibility Wind Dir Wind Speed Gust Speed Precip Events Conditions
12:56 AM 75.9 °F - 73.9 °F 94% 29.97 in 10.0 mi WNW 3.5 mph - N/A   Clear
1:56 AM 75.9 °F - 73.9 °F 94% 29.96 in 10.0 mi WNW 3.5 mph - N/A   Clear
2:56 AM 75.9 °F - 73.9 °F 94% 29.96 in 10.0 mi West 4.6 mph - N/A   Clear
3:56 AM 73.9 °F - 73.0 °F 97% 29.97 in 10.0 mi Calm Calm - N/A   Clear
4:56 AM 73.9 °F - 73.0 °F 97% 29.97 in 10.0 mi WNW 3.5 mph - N/A   Clear
5:56 AM 73.0 °F - 73.0 °F 100% 29.99 in 7.0 mi Calm Calm - N/A   Clear
6:56 AM 73.0 °F - 73.0 °F 100% 29.99 in 6.0 mi NNW 3.5 mph - N/A   Partly Cloudy
7:56 AM 78.1 °F - 75.0 °F 90% 30.01 in 7.0 mi NW 4.6 mph - N/A   Partly Cloudy
8:56 AM 84.0 °F 93.7 °F 77.0 °F 79% 30.01 in 10.0 mi NNW 5.8 mph - N/A   Partly Cloudy
9:56 AM 88.0 °F 96.5 °F 73.9 °F 63% 30.01 in 10.0 mi Variable 3.5 mph - N/A   Partly Cloudy
10:56 AM 91.9 °F 100.7 °F 73.0 °F 54% 30.01 in 10.0 mi Variable 5.8 mph - N/A   Clear
11:56 AM 95.0 °F 103.2 °F 72.0 °F 47% 30.00 in 10.0 mi NNW 5.8 mph - N/A   Partly Cloudy
12:56 PM 96.1 °F 105.6 °F 73.0 °F 47% 29.98 in 10.0 mi SSW 5.8 mph - N/A   Partly Cloudy
1:56 PM 97.0 °F 102.8 °F 69.1 °F 40% 29.96 in 10.0 mi West 4.6 mph - N/A   Partly Cloudy
2:56 PM 97.0 °F 102.8 °F 69.1 °F 40% 29.94 in 10.0 mi Variable 5.8 mph - N/A   Partly Cloudy
3:56 PM 98.1 °F 104.4 °F 69.1 °F 39% 29.93 in 10.0 mi WSW 6.9 mph - N/A   Partly Cloudy
4:56 PM 96.1 °F 104.9 °F 72.0 °F 46% 29.92 in 10.0 mi South 9.2 mph - N/A   Partly Cloudy
5:56 PM 91.9 °F 100.7 °F 73.0 °F 54% 29.93 in 10.0 mi SW 8.1 mph - N/A   Partly Cloudy
6:56 PM 86.0 °F 92.2 °F 72.0 °F 63% 29.94 in 10.0 mi SW 6.9 mph - N/A   Partly Cloudy
7:56 PM 82.9 °F 89.4 °F 73.9 °F 74% 29.96 in 10.0 mi WSW 6.9 mph - N/A   Partly Cloudy
8:56 PM 81.0 °F 86.2 °F 73.9 °F 79% 29.97 in 10.0 mi WSW 4.6 mph - N/A   Partly Cloudy
9:56 PM 78.1 °F - 73.9 °F 87% 29.97 in 10.0 mi West 3.5 mph - N/A   Partly Cloudy
10:56 PM 77.0 °F - 75.0 °F 94% 29.96 in 10.0 mi Calm Calm - N/A   Partly Cloudy
11:56 PM 75.9 °F - 73.9 °F 94% 29.96 in 10.0 mi WNW 3.5 mph - N/A   Clear